• In Uzbekistan
  • List of Countries
  • For 7 days
  • Water Temperature
  • Weather Map
  • Weather Widgets
  • user-avatar
    Login

    Hourly Weather Karabalta

    Today, 17 September, Tuesday

    Time Temperature Precipitation Wind Pressure Humidity
    00:00 +17°C° 0 mm 2 mps 698 mmHg 45%
    01:00 +16°C° 0 mm 2 mps 698 mmHg 45%
    02:00 +16°C° 0 mm 2 mps 698 mmHg 46%
    03:00 +16°C° 0 mm 1 mps 698 mmHg 47%
    04:00 +15°C° 0 mm 1 mps 699 mmHg 47%
    05:00 +15°C° 0 mm 2 mps 699 mmHg 49%
    06:00 +16°C° 0 mm 1 mps 699 mmHg 47%
    07:00 +19°C° 0 mm 1 mps 700 mmHg 44%
    08:00 +18°C° 0 mm 0 mps 701 mmHg 41%
    09:00 +21°C° 0 mm 1 mps 701 mmHg 39%
    10:00 +21°C° 0 mm 2 mps 701 mmHg 37%
    11:00 +22°C° 0 mm 3 mps 701 mmHg 34%
    12:00 +24°C° 0 mm 3 mps 700 mmHg 33%
    13:00 +25°C° 0 mm 3 mps 700 mmHg 32%
    14:00 +25°C° 0 mm 3 mps 700 mmHg 31%
    15:00 +25°C° 0 mm 3 mps 700 mmHg 31%
    16:00 +25°C° 0 mm 3 mps 700 mmHg 32%
    17:00 +24°C° 0 mm 3 mps 699 mmHg 32%
    18:00 +22°C° 0 mm 3 mps 699 mmHg 33%
    19:00 +20°C° 0 mm 3 mps 699 mmHg 34%
    20:00 +18°C° 0 mm 3 mps 699 mmHg 35%
    21:00 +18°C° 0 mm 3 mps 699 mmHg 35%
    22:00 +18°C° 0 mm 3 mps 698 mmHg 34%
    23:00 +17°C° 0 mm 3 mps 698 mmHg 33%

    Tomorrow, 18 September, Wednesday

    Time Temperature Precipitation Wind Pressure Humidity
    00:00 +17°C° 0 mm 3 mps 697 mmHg 32%
    01:00 +17°C° 0 mm 3 mps 697 mmHg 32%
    02:00 +17°C° 0 mm 3 mps 697 mmHg 32%
    03:00 +17°C° 0 mm 3 mps 697 mmHg 32%
    04:00 +16°C° 0 mm 3 mps 697 mmHg 32%
    05:00 +16°C° 0 mm 3 mps 696 mmHg 32%
    06:00 +18°C° 0 mm 3 mps 696 mmHg 31%
    07:00 +20°C° 0 mm 2 mps 696 mmHg 29%
    08:00 +21°C° 0 mm 2 mps 696 mmHg 28%
    09:00 +24°C° 0 mm 2 mps 696 mmHg 26%
    10:00 +26°C° 0 mm 3 mps 696 mmHg 24%
    11:00 +28°C° 0 mm 3 mps 696 mmHg 22%
    12:00 +28°C° 0 mm 3 mps 696 mmHg 21%
    13:00 +29°C° 0 mm 2 mps 695 mmHg 21%
    14:00 +30°C° 0 mm 2 mps 695 mmHg 20%
    15:00 +29°C° 0 mm 2 mps 695 mmHg 22%
    16:00 +29°C° 0 mm 1 mps 695 mmHg 23%
    17:00 +28°C° 0 mm 1 mps 695 mmHg 25%
    18:00 +27°C° 0 mm 1 mps 695 mmHg 25%
    19:00 +25°C° 0 mm 2 mps 695 mmHg 25%
    20:00 +23°C° 0 mm 2 mps 695 mmHg 25%
    21:00 +23°C° 0 mm 2 mps 695 mmHg 25%
    22:00 +23°C° 0 mm 2 mps 695 mmHg 25%
    23:00 +21°C° 0 mm 3 mps 695 mmHg 25%

    Day after tomorrow, 19 September, Thursday

    Time Temperature Precipitation Wind Pressure Humidity
    00:00 +21°C° 0 mm 3 mps 695 mmHg 25%
    01:00 +21°C° 0 mm 2 mps 695 mmHg 24%
    02:00 +21°C° 0 mm 2 mps 695 mmHg 24%
    03:00 +21°C° 0 mm 2 mps 695 mmHg 25%
    04:00 +20°C° 0 mm 2 mps 696 mmHg 25%
    05:00 +20°C° 0 mm 2 mps 696 mmHg 25%
    06:00 +23°C° 0 mm 2 mps 697 mmHg 24%
    07:00 +24°C° 0 mm 2 mps 697 mmHg 24%
    08:00 +26°C° 0 mm 1 mps 697 mmHg 23%
    09:00 +28°C° 0 mm 1 mps 698 mmHg 21%
    10:00 +29°C° 0 mm 2 mps 698 mmHg 19%
    11:00 +31°C° 0 mm 2 mps 698 mmHg 17%
    12:00 +31°C° 0 mm 2 mps 698 mmHg 17%
    13:00 +32°C° 0 mm 2 mps 697 mmHg 17%
    14:00 +34°C° 0 mm 2 mps 697 mmHg 16%
    15:00 +32°C° 0 mm 2 mps 697 mmHg 18%
    16:00 +31°C° 0 mm 2 mps 697 mmHg 19%
    17:00 +31°C° 0 mm 2 mps 697 mmHg 20%
    18:00 +29°C° 0 mm 2 mps 697 mmHg 21%
    19:00 +27°C° 0 mm 3 mps 697 mmHg 22%
    20:00 +25°C° 0 mm 3 mps 697 mmHg 23%
    21:00 +25°C° 0 mm 3 mps 696 mmHg 23%
    22:00 +25°C° 0 mm 3 mps 696 mmHg 24%
    23:00 +24°C° 0 mm 3 mps 696 mmHg 24%

    20 September, Friday

    Time Temperature Precipitation Wind Pressure Humidity
    00:00 +23°C° 0 mm 4 mps 696 mmHg 25%
    01:00 +23°C° 0 mm 4 mps 696 mmHg 25%
    02:00 +22°C° 0 mm 4 mps 696 mmHg 26%
    03:00 +21°C° 0 mm 3 mps 696 mmHg 27%
    04:00 +21°C° 0 mm 3 mps 696 mmHg 29%
    05:00 +20°C° 0 mm 3 mps 696 mmHg 30%
    06:00 +21°C° 0 mm 2 mps 697 mmHg 29%
    07:00 +24°C° 0 mm 2 mps 697 mmHg 28%
    08:00 +25°C° 0 mm 1 mps 697 mmHg 28%
    09:00 +26°C° 0 mm 2 mps 697 mmHg 27%
    10:00 +27°C° 0 mm 2 mps 697 mmHg 26%
    11:00 +28°C° 0 mm 2 mps 697 mmHg 25%
    12:00 +29°C° 0 mm 2 mps 697 mmHg 24%
    13:00 +29°C° 0 mm 2 mps 697 mmHg 23%
    14:00 +30°C° 0 mm 2 mps 696 mmHg 23%
    15:00 +30°C° 0 mm 2 mps 696 mmHg 24%
    16:00 +29°C° 0 mm 2 mps 697 mmHg 25%
    17:00 +29°C° 0 mm 1 mps 697 mmHg 27%
    18:00 +27°C° 0 mm 1 mps 697 mmHg 29%
    19:00 +25°C° 0 mm 1 mps 697 mmHg 32%
    20:00 +23°C° 0 mm 1 mps 697 mmHg 34%
    21:00 +23°C° 0 mm 1 mps 697 mmHg 34%
    22:00 +23°C° 0 mm 1 mps 696 mmHg 35%
    23:00 +22°C° 0 mm 1 mps 696 mmHg 35%

    21 September, Saturday

    Time Temperature Precipitation Wind Pressure Humidity
    00:00 +22°C° 0 mm 1 mps 696 mmHg 35%
    01:00 +21°C° 0 mm 1 mps 696 mmHg 35%
    02:00 +20°C° 0 mm 2 mps 696 mmHg 35%
    03:00 +20°C° 0 mm 2 mps 695 mmHg 35%
    04:00 +19°C° 0 mm 2 mps 695 mmHg 35%
    05:00 +19°C° 0 mm 2 mps 695 mmHg 36%
    06:00 +20°C° 0 mm 2 mps 695 mmHg 34%
    07:00 +23°C° 0 mm 2 mps 696 mmHg 32%
    08:00 +24°C° 0 mm 2 mps 696 mmHg 30%
    09:00 +26°C° 0 mm 2 mps 695 mmHg 27%
    10:00 +28°C° 0 mm 2 mps 695 mmHg 25%
    11:00 +30°C° 0 mm 3 mps 695 mmHg 23%
    12:00 +30°C° 0 mm 3 mps 695 mmHg 21%
    13:00 +31°C° 0 mm 2 mps 694 mmHg 20%
    14:00 +32°C° 0 mm 2 mps 694 mmHg 19%
    15:00 +32°C° 0 mm 2 mps 693 mmHg 20%
    16:00 +31°C° 0 mm 2 mps 693 mmHg 21%
    17:00 +31°C° 0 mm 2 mps 693 mmHg 23%
    18:00 +29°C° 0 mm 2 mps 693 mmHg 23%
    19:00 +27°C° 0 mm 3 mps 692 mmHg 22%
    20:00 +25°C° 0 mm 3 mps 692 mmHg 22%
    21:00 +25°C° 0 mm 3 mps 692 mmHg 22%
    22:00 +24°C° 0 mm 3 mps 692 mmHg 22%
    23:00 +24°C° 0 mm 3 mps 692 mmHg 22%

    22 September, Sunday

    Time Temperature Precipitation Wind Pressure Humidity
    00:00 +24°C° 0 mm 3 mps 692 mmHg 22%
    01:00 +24°C° 0 mm 3 mps 692 mmHg 21%
    02:00 +24°C° 0 mm 3 mps 692 mmHg 21%
    03:00 +22°C° 0 mm 3 mps 692 mmHg 20%
    04:00 +22°C° 0 mm 3 mps 692 mmHg 20%
    05:00 +22°C° 0 mm 3 mps 692 mmHg 20%
    06:00 +25°C° 0 mm 2 mps 693 mmHg 19%
    07:00 +27°C° 0 mm 2 mps 693 mmHg 19%
    08:00 +29°C° 0 mm 1 mps 694 mmHg 19%
    09:00 +30°C° 0 mm 2 mps 694 mmHg 17%
    10:00 +32°C° 0 mm 2 mps 694 mmHg 16%
    11:00 +35°C° 0 mm 2 mps 694 mmHg 14%
    12:00 +36°C° 0 mm 2 mps 694 mmHg 13%
    13:00 +36°C° 0 mm 2 mps 694 mmHg 13%
    14:00 +37°C° 0 mm 2 mps 693 mmHg 12%
    15:00 +36°C° 0 mm 2 mps 693 mmHg 14%
    16:00 +35°C° 0 mm 2 mps 693 mmHg 15%
    17:00 +33°C° 0 mm 1 mps 693 mmHg 17%
    18:00 +31°C° 0 mm 2 mps 693 mmHg 18%
    19:00 +30°C° 0 mm 3 mps 693 mmHg 19%
    20:00 +28°C° 0 mm 4 mps 693 mmHg 19%
    21:00 +27°C° 0 mm 4 mps 693 mmHg 19%
    22:00 +27°C° 0 mm 4 mps 693 mmHg 18%
    23:00 +27°C° 0 mm 4 mps 693 mmHg 17%
    Show more